Location: D�derode
(51.8092°N, 10.1065°E)
Time: 19:16:58
(UTC+00:00)

Cosmos 2218 Rocket - Pass Details

Date: 01 December 2020
Orbit: 956 x 1005 km, 82.9° (Epoch: 24 January)

Event Time Altitude Azimuth Distance (km) Brightness Sun altitude
Rises 16:26:57 0° 350° (N) 3,653 6.9 -10.9°
Reaches altitude 10° 16:29:29 10° 353° (N) 2,701 6.2 -11.3°
Maximum altitude 16:35:38 71° 77° (ENE) 1,015 3.9 -12.2°
Drops below altitude 10° 16:41:46 10° 162° (SSE) 2,690 6.3 -13.1°
Sets 16:44:17 0° 165° (SSE) 3,636 7.0 -13.4°
